Regional Weather Roundup
Issued by NWS

Home | Current Version | Previous Version | Graphics & Text | Print | Product List | Glossary On
Versions: 1 2 3 4 5 6 7 8 9 10 11 12 13 14 15 16 17 18 19 20 21 22 23 24 25 26 27 28 29 30 31 32 33 34 35 36 37 38 39 40 41 42 43 44 45 46 47 48 49 50
000
ASUS43 KLOT 270608
RWRIL

ILLINOIS REGIONAL WEATHER ROUNDUP
NATIONAL WEATHER SERVICE CHICAGO/ROMEOVILLE IL
100 AM CDT MON APR 27 2015

NOTE: "FAIR" INDICATES FEW OR NO CLOUDS BELOW 12,000 FEET WITH NO
SIGNIFICANT WEATHER AND/OR OBSTRUCTIONS TO VISIBILITY.

* THESE STATIONS ARE NOT UNDER NWS QUALITY CONTROL. THEY ALSO MAY NOT
  REPORT WEATHER SUCH AS PRECIPITATION OR FOG.

ILZ001-002-007-009-015-016-024-270700-
NORTHWEST ILLINOIS

CITY           SKY/WX    TMP DP  RH WIND       PRES   REMARKS
MOLINE         CLEAR     38  34  85 CALM      30.06S
6HR MIN TEMP:  38; 6HR MAX TEMP:  58;

STERLING*      CLEAR     39  34  81 E5        30.08R
SAVANNA*       CLEAR     39  32  76 E10G17    30.07R WCI  32
$$

ILZ003-004-008-010-011-017-018-270700-
NORTH CENTRAL ILLINOIS

CITY           SKY/WX    TMP DP  RH WIND       PRES   REMARKS
ROCKFORD       CLEAR     41  25  53 NE3       30.11R
6HR MIN TEMP:  41; 6HR MAX TEMP:  58;

FREEPORT*      CLEAR     36  29  76 E7        30.11R WCI  30
ROCHELLE*      CLEAR     39  28  66 CALM      30.09R
DE KALB*       CLEAR     37  28  67 N8        30.08R WCI  31
PERU*          CLEAR     41  30  64 NE5       30.08S
$$

ILZ005-006-012>014-019>023-270700-
NORTHEAST ILLINOIS

CITY           SKY/WX    TMP DP  RH WIND       PRES   REMARKS
CHICAGO-OHARE  CLEAR     42  30  62 N12       30.05S
6HR MIN TEMP:  42; 6HR MAX TEMP:  49;

CHICAGO-MIDWAY CLEAR     46  31  55 N14       30.05R
6HR MIN TEMP:  45; 6HR MAX TEMP:  50;

AURORA         CLEAR     38  27  64 N6        30.07S WCI  33
6HR MIN TEMP:  36; 6HR MAX TEMP:  54;

LANSING*       CLEAR     43  32  64 N9G16     30.04S
JOLIET*        CLEAR     42  29  60 N5        30.06S
WAUKEGAN       CLEAR     41  31  67 N9        30.06S
6HR MIN TEMP:  40; 6HR MAX TEMP:  46;

DUPAGE AIRPORT CLEAR     36  28  73 N7        30.06R WCI  30
6HR MIN TEMP:  35; 6HR MAX TEMP:  51;

KANKAKEE*      CLEAR     42  31  64 NW7       30.05R
WHEELING       CLEAR     41  29  62 N7        30.08R
6HR MIN TEMP:  40; 6HR MAX TEMP:  47;

MORRIS*        CLEAR     38  29  71 CALM      30.03F
ROMEOVILLE*    CLEAR     39  28  64 N7        30.05S WCI  34
NORTHERLY ISL    N/A     44  33  65 N15         N/A
$$

LMZ740>746-270700-
SOUTHERN LAKE MICHIGAN

STATION/POSITION SKY/WX   TEMP    WIND        PRES    VSBY  WAVE
                          AIR SEA DIR/SP/G                  HT/PER
                          (F)     (DEG/KT/KT) (MB)    (MI)  (FT/S)
HARRISON CRIB              43     340/ 21/ 24   N/A
BURNHAM HARBOR             44     330/ 14/ 20   N/A
CALUMET HARBOR             44     340/ 12/ 18   N/A
BURNS HARBOR               42     350/ 18/ 23 1016.9S
MICHIGAN CITY              41     340/ 17/ 19   N/A
MICHIGAN CITY 6N           41 45  350/ 14/ 19   N/A           4/ 6
$$

ILZ025>027-034>036-040-047-049-050-058-095>099-270700-
WEST-CENTRAL ILLINOIS

CITY           SKY/WX    TMP DP  RH WIND       PRES   REMARKS
QUINCY         CLEAR     46  35  65 CALM      30.07R
GALESBURG*     CLEAR     38  34  84 W5        30.07S WCI  34
MACOMB*        CLEAR     40  36  85 W5        30.09S
JACKSONVILLE*  FAIR      42  37  80 CALM      30.08R
PITTSFIELD*    CLEAR     43  38  81 CALM      30.08R
$$

ILZ028>032-037-038-041>044-048-051>054-059>061-270700-
CENTRAL ILLINOIS

CITY           SKY/WX    TMP DP  RH WIND       PRES   REMARKS
PONTIAC        CLEAR     37  32  84 N6        30.08R WCI  32
BLOOMINGTON    CLEAR     42  32  68 NW3       30.07R
DECATUR        CLEAR     39  30  70 N7        30.04S WCI  34
PEORIA         CLEAR     42  35  76 CALM      30.07R
6HR MIN TEMP:  42; 6HR MAX TEMP:  58;

LACON*         CLEAR     38  34  85 CALM      30.07R
LINCOLN*       CLEAR     41  34  76 CALM      30.05S
SPRINGFIELD    CLEAR     40  33  76 W3        30.06F
6HR MIN TEMP:  40; 6HR MAX TEMP:  57;

TAYLORVILLE    CLEAR     37  34  87 CALM      30.05S
$$

ILZ033-039-045-046-055>057-062-063-270700-
EAST-CENTRAL ILLINOIS

CITY           SKY/WX    TMP DP  RH WIND       PRES   REMARKS
CHAMPAIGN      CLEAR     36  30  79 N8        30.03S WCI  30
DANVILLE*      CLEAR     38  30  71 NW7       30.00R WCI  33
RANTOUL*       CLEAR     43  30  60 N9        30.04R
MATTOON        CLEAR     38  30  73 N7        30.01F WCI  33
PARIS*         CLEAR     39  32  75 N5        30.02S
$$

ILZ079-100>102-270700-
SOUTHWEST ILLINOIS

CITY           SKY/WX    TMP DP  RH WIND       PRES   REMARKS
ALTON          CLEAR     44  37  78 CALM      30.05S
BELLEVILLE     CLEAR     44  37  75 N3        30.03S
CAHOKIA*       CLEAR     46  36  68 NE5       30.04S
SPARTA*        CLEAR     45  37  74 N5        30.03S
$$

ILZ064>066-069>071-074>076-080>082-084>086-088>090-092>094-270700-
SOUTH-CENTRAL ILLINOIS

CITY           SKY/WX    TMP DP  RH WIND       PRES   REMARKS
CARBONDALE     CLEAR     48  36  63 NE7       30.00S
6HR MIN TEMP:  48; 6HR MAX TEMP:  60;

CAIRO*         CLEAR     51  40  64 N10       29.97S
EFFINGHAM*     CLEAR     42  31  65 CALM      30.04S
MARION         CLEAR     46  37  71 N8        30.00S
MT. VERNON     CLEAR     45  30  57 N7        30.02S
CENTRALIA*     CLEAR     44  33  63 N6        30.03S
SALEM*         CLEAR     45  35  67 N6        30.03S
METROPOLIS*    CLEAR     49  40  72 N6        29.96S
$$

ILZ067-068-072-073-078-083-087-091-270700-
SOUTHEAST ILLINOIS

CITY           SKY/WX    TMP DP  RH WIND       PRES   REMARKS
LAWRENCEVILLE  CLEAR     46  33  60 N12       30.00F
FLORA*         CLEAR     43  33  68 N6        30.02F
FAIRFIELD*     CLEAR     46  33  62 N6        30.00S
HARRISBURG*    CLEAR     48  36  62 N8        30.01R
ROBINSON*      CLEAR     40  34  80 NW5       30.03R
CARMI*         CLEAR     46  33  61 N8        29.99S
$$

ABBREVIATIONS USED IN REMARKS
   TC - TEMPERATURE IN CELSIUS
  WCI - WIND CHILL INDEX
   HX - HEAT INDEX
  VSB - VISIBILITY
$$



USA.gov is the U.S. government's official web portal to all federal, state and local government web resources and services.